Tracking 31027 objects as of 19-Jul-2025
HD Live streaming from Space Station
objects crossing your sky now

RANGE-A

Track RANGE-A now!
10-day predictions
RANGE-A is classified as:


NORAD ID: 43772
Int'l Code: 2018-099Q
Perigee: 474.8 km
Apogee: 478.2 km
Inclination: 97.5 °
Period: 94.0 minutes
Semi major axis: 6847 km
RCS: Unknown
Launch date: December 3, 2018
Source: (TBD)
Launch site: AIR FORCE WESTERN TEST RANGE (AFWTR)

Uplink (MHz):
Downlink (MHz): 437.150
Beacon (MHz):
Mode: 0.1kbps-115.2kbps FSK/MSK/GFSK/GMSK
Call sign:
Status: Inactive

Your satellite tracking list
COSMOS 2251 DEB
Track 1 satellite(s)




NASA's NSSDC Master Catalog

Two Line Element Set (TLE):
1 43772U 18099Q   25199.80076544  .00018076  00000-0  58380-3 0  9999
2 43772  97.4699 265.1161 0002527 335.7923  24.3199 15.32166949363005
Source of the keplerian elements: Caltech